Winona, MN

10:05 AM CDT on August 25, 2019 (GMT -0500)
Winona Municipal-Conrad

Weather History for KONA - July, 2019

Change the Weather History Date:

Friday, July 19, 2019

  Actual Average Record
Temperature  
Mean Temperature 84 °F -  
Max Temperature 95 °F 80 °F 95 °F (2019)
Min Temperature 73 °F 63 °F 53 °F (2000)
Cooling Degree Days 19    
Growing Degree Days 34 (Base 50)    
Moisture  
Dew Point 76 °F    
Average Humidity 77    
Maximum Humidity 100    
Minimum Humidity 59    
Precipitation  
Precipitation 0.03 in - - ()
Sea Level Pressure  
Sea Level Pressure 29.70 in    
Wind  
Wind Speed 4 mph (SSE)    
Max Wind Speed 12 mph    
Max Gust Speed 17 mph    
Visibility 10 miles    
Events Rain , Thunderstorm    
Averages and records for this station are not official NWS values.
T = Trace of Precipitation, MM = Missing Value Source: NWS Daily Summary

Daily Weather History Graph

Daily Weather History Graph

Search for Another Location

Airport or City:

Astronomy

Jul. 19, 2019 Rise Set
Actual Time 5:41 AM CDT 8:44 PM CDT
Civil Twilight 5:06 AM CDT 9:19 PM CDT
Nautical Twilight 4:22 AM CDT 10:03 PM CDT
Astronomical Twilight 3:28 AM CDT 10:56 PM CDT
Moon 10:38 PM CDT (7/19) 8:11 AM CDT (7/19)
Length of Visible Light 16h 12m
Length of Day
15h 03m
Waning Gibbous, 93% of the Moon is Illuminated
Jul 19
Waning Gibbous
Jul 24
Last Quarter
Jul 31
New
Aug 7
First Quarter
Aug 15
Full

Hourly Weather History & Observations

Time (CDT) Temp. Heat Index Dew Point Humidity Pressure Visibility Wind Dir Wind Speed Gust Speed Precip Events Conditions
12:55 AM 75.2 °F - 73.4 °F 94% 29.69 in 10.0 mi SE 9.2 mph - 0.01 in Rain Light Rain
2:55 AM 73.4 °F - 73.4 °F 100% 29.69 in 10.0 mi Calm Calm - 0.01 in   Mostly Cloudy
3:55 AM 75.2 °F - 73.4 °F 94% 29.68 in 10.0 mi SW 3.5 mph - N/A Rain , Thunderstorm Light Thunderstorms and Rain
4:55 AM 75.2 °F - 71.6 °F 89% 29.70 in 10.0 mi ESE 3.5 mph - N/A   Scattered Clouds
5:55 AM 75.2 °F - 71.6 °F 89% 29.72 in 10.0 mi Calm Calm - 0.01 in   Clear
6:55 AM 75.2 °F - 71.6 °F 89% 29.73 in 10.0 mi Calm Calm - N/A   Clear
7:55 AM 77.0 °F - 71.6 °F 83% 29.75 in 10.0 mi Calm Calm - N/A   Clear
8:55 AM 77.0 °F - 71.6 °F 83% 29.76 in 10.0 mi Calm Calm - N/A   Clear
9:55 AM 80.6 °F 85.4 °F 73.4 °F 79% 29.76 in 10.0 mi East 3.5 mph - N/A   Clear
10:55 AM 82.4 °F 89.5 °F 75.2 °F 79% 29.76 in 10.0 mi ESE 3.5 mph - N/A   Clear
11:55 AM 87.8 °F 99.7 °F 77.0 °F 70% 29.74 in 10.0 mi ESE 9.2 mph - N/A   Clear
12:55 PM 89.6 °F 104.7 °F 78.8 °F 70% 29.72 in 10.0 mi ESE 11.5 mph - N/A   Clear
1:55 PM 89.6 °F 104.7 °F 78.8 °F 70% 29.72 in 10.0 mi SE 6.9 mph - N/A   Mostly Cloudy
2:55 PM 91.4 °F 107.2 °F 78.8 °F 66% 29.71 in 10.0 mi SSE 4.6 mph - N/A   Mostly Cloudy
3:55 PM 95.0 °F 115.8 °F 80.6 °F 63% 29.69 in 10.0 mi Calm Calm - N/A   Scattered Clouds
4:55 PM 95.0 °F 112.2 °F 78.8 °F 59% 29.64 in 10.0 mi SSE 11.5 mph 17.3 mph N/A   Clear
5:55 PM 95.0 °F 115.8 °F 80.6 °F 63% 29.60 in 10.0 mi South 5.8 mph - N/A   Clear
6:55 PM 89.6 °F 104.7 °F 78.8 °F 70% 29.65 in 10.0 mi Calm Calm - N/A   Clear
7:55 PM 89.6 °F 104.7 °F 78.8 °F 70% 29.65 in 10.0 mi West 5.8 mph - N/A Thunderstorm Scattered Clouds
8:55 PM 89.6 °F 108.2 °F 80.6 °F 75% 29.67 in 10.0 mi Calm Calm - N/A   Mostly Cloudy
9:55 PM 89.6 °F 108.2 °F 80.6 °F 75% 29.67 in 10.0 mi SW 5.8 mph - N/A   Clear
10:55 PM 89.6 °F 108.2 °F 80.6 °F 75% 29.69 in 10.0 mi SW 5.8 mph - N/A   Clear
11:55 PM 87.8 °F 102.5 °F 78.8 °F 75% 29.71 in 10.0 mi WSW 3.5 mph - N/A   Clear